User: anonymous   Login
Location: Unspecified
(0.0000°N, 0.0000°E)
Time: 02:55:38
(UTC+00:00)
Language:

STARLINK-5704 - Orbit

View from above orbital plane
View from above orbital plane
View from above satellite
View from above satellite

Ground track
Ground track

The orbit is defined by the following mean orbital elements,

1 55486U          26145.32579865 +.00000000 +00000-0 +14532-4 0 00003
2 55486  43.0059 267.0648 0001997 280.2108  79.8518 15.27575504    00
Epoch (UTC): 25 May 2026 07:49:09
Eccentricity: 0.0001997
inclination: 43.0059°
perigee height: 482 km
apogee height: 484 km
right ascension of ascending node: 267.0648°
argument of perigee: 280.2108°
revolutions per day: 15.27575504
mean anomaly at epoch: 79.8518°

The dashed part of the orbit path shows where the satellite is in the earth's shadow,  

DLR